Horseheads, NY

12:40 PM EST on January 23, 2017 (GMT -0500)
Elmira-Corning Regional

Weather History for KELM - April, 2013

Change the Weather History Date:

Sunday, April 28, 2013

  Actual Average Record
Temperature  
Mean Temperature 52 °F -  
Max Temperature 69 °F 62 °F 91 °F (1990)
Min Temperature 34 °F 36 °F 21 °F (1972)
Degree Days  
Heating Degree Days 14    
Growing Degree Days 2 (Base 50)    
Moisture  
Dew Point 37 °F    
Average Humidity 58    
Maximum Humidity 89    
Minimum Humidity 26    
Precipitation  
Precipitation 0.10 in - - ()
Sea Level Pressure  
Sea Level Pressure 30.18 in    
Wind  
Wind Speed 4 mph (South)    
Max Wind Speed 22 mph    
Max Gust Speed 26 mph    
Visibility 10 miles    
Events Rain    
Averages and records for this station are not official NWS values.
T = Trace of Precipitation, MM = Missing Value Source: NWS Daily Summary

Daily Weather History Graph

Daily Weather History Graph

Search for Another Location

Airport or City:

Trip Planner

Search our weather history database for the weather conditions in past years. The results will help you decide how hot, cold, wet, or windy it might be!

Date:

Astronomy

Apr. 28, 2013 Rise Set
Actual Time 6:07 AM EDT 8:03 PM EDT
Civil Twilight 5:36 AM EDT 8:34 PM EDT
Nautical Twilight 4:59 AM EDT 9:11 PM EDT
Astronomical Twilight 4:19 AM EDT 9:51 PM EDT
Moon 11:33 PM EDT (4/28) 8:19 AM EDT (4/28)
Length of Visible Light 14h 57m
Length of Day
13h 56m
Waning Gibbous, 89% of the Moon is Illuminated
Apr 28
Waning Gibbous
May 2
Last Quarter
May 9
New
May 18
First Quarter
May 25
Full

Hourly Weather History & Observations

Time (EDT) Temp. Dew Point Humidity Pressure Visibility Wind Dir Wind Speed Gust Speed Precip Events Conditions
12:53 AM 41.0 °F 34.0 °F 76% 30.26 in 10.0 mi Calm Calm - N/A   Clear
1:53 AM 37.9 °F 32.0 °F 79% 30.25 in 10.0 mi Calm Calm - N/A   Clear
2:53 AM 37.9 °F 32.0 °F 79% 30.24 in 10.0 mi Calm Calm - N/A   Clear
3:53 AM 36.0 °F 32.0 °F 86% 30.25 in 10.0 mi Calm Calm - N/A   Clear
4:53 AM 36.0 °F 30.9 °F 82% 30.25 in 10.0 mi Calm Calm - N/A   Clear
5:53 AM 34.0 °F 30.9 °F 89% 30.24 in 10.0 mi Calm Calm - N/A   Clear
6:53 AM 37.0 °F 33.1 °F 86% 30.25 in 10.0 mi Calm Calm - N/A   Clear
7:53 AM 44.1 °F 36.0 °F 73% 30.25 in 10.0 mi Calm Calm - N/A   Clear
9:53 AM 59.0 °F 37.9 °F 46% 30.23 in 10.0 mi Calm Calm - N/A   Clear
10:53 AM 66.0 °F 39.9 °F 38% 30.21 in 10.0 mi ESE 6.9 mph - N/A   Clear
11:53 AM 69.1 °F 37.0 °F 31% 30.18 in 10.0 mi South 12.7 mph - N/A   Clear
12:53 PM 69.1 °F 33.1 °F 26% 30.16 in 10.0 mi SSE 21.9 mph 26.5 mph N/A   Clear
1:53 PM 69.1 °F 36.0 °F 30% 30.14 in 10.0 mi South 15.0 mph 20.7 mph N/A   Clear
2:53 PM 68.0 °F 37.0 °F 32% 30.14 in 10.0 mi South 13.8 mph 26.5 mph N/A   Clear
3:53 PM 66.9 °F 35.1 °F 31% 30.12 in 10.0 mi SSW 12.7 mph 23.0 mph N/A   Clear
4:53 PM 64.9 °F 36.0 °F 34% 30.11 in 10.0 mi SSW 17.3 mph 25.3 mph N/A   Scattered Clouds
5:53 PM 64.0 °F 37.9 °F 38% 30.10 in 10.0 mi South 13.8 mph 19.6 mph N/A   Partly Cloudy
6:53 PM 63.0 °F 37.9 °F 40% 30.09 in 10.0 mi SSW 9.2 mph - N/A   Mostly Cloudy
7:53 PM 60.1 °F 37.9 °F 44% 30.11 in 10.0 mi SSW 10.4 mph 19.6 mph 0.00 in Rain Light Rain
8:53 PM 55.0 °F 43.0 °F 64% 30.13 in 10.0 mi SW 8.1 mph - 0.00 in Rain Light Rain
9:53 PM 53.1 °F 45.0 °F 74% 30.14 in 10.0 mi SSW 9.2 mph - 0.05 in Rain Light Rain
10:53 PM 51.1 °F 45.0 °F 80% 30.13 in 9.0 mi Calm Calm - 0.04 in Rain Light Rain
11:53 PM 52.0 °F 44.1 °F 74% 30.11 in 10.0 mi SSE 5.8 mph - 0.01 in   Overcast